This is the latest recevied weather packets stored in our database for station/object KC1HBM. If no packets are shown the sender has not sent any weather packets the latest 10 day(s).
| Time | Temp. | Humidity | Pressure | Rain* | Wind** | Luminosity | Snow |
|---|---|---|---|---|---|---|---|
| 1787832928 | 20° C | 95% | 1015.8 hPa | 0 mm | - | 178 W/m² | - |
| 1787832625 | 20° C | 97% | 1015.9 hPa | 0 mm | - | 114 W/m² | - |
| 1787832323 | 19.44° C | 99% | 1015.9 hPa | 0 mm | - | 73 W/m² | - |
| 1787832023 | 18.89° C | 99% | 1015.9 hPa | 0 mm | - | 59 W/m² | - |
| 1787831717 | 18.89° C | 99% | 1015.8 hPa | 0 mm | - | 36 W/m² | - |
| 1787831415 | 18.89° C | 99% | 1015.9 hPa | 0 mm | - | 29 W/m² | - |
| 1787831114 | 18.89° C | 99% | 1015.7 hPa | 0 mm | - | 26 W/m² | - |
| 1787830811 | 18.33° C | 99% | 1015.8 hPa | 0 mm | - | 21 W/m² | - |
| 1787830510 | 18.33° C | 99% | 1015.6 hPa | 0 mm | - | 17 W/m² | - |
| 1787830210 | 18.89° C | 99% | 1015.7 hPa | 0 mm | - | 16 W/m² | - |
| 1787829905 | 18.89° C | 99% | 1015.8 hPa | 0 mm | - | 16 W/m² | - |
| 1787829603 | 18.89° C | 99% | 1015.4 hPa | 0 mm | - | 19 W/m² | - |
| 1787829300 | 18.89° C | 99% | 1015.5 hPa | 0 mm | - | 44 W/m² | - |
| 1787828995 | 18.89° C | 99% | 1015.6 hPa | 0 mm | - | 38 W/m² | - |
| 1787828691 | 18.33° C | 99% | 1015.5 hPa | 0 mm | - | 29 W/m² | - |
| 1787828386 | 18.33° C | 99% | 1015.6 hPa | 0 mm | - | 26 W/m² | - |
| 1787828085 | 18.33° C | 99% | 1015.5 hPa | 0 mm | - | 22 W/m² | - |
| 1787827779 | 18.33° C | 99% | 1015.3 hPa | 0 mm | - | 20 W/m² | - |
| 1787827475 | 17.78° C | 99% | 1015.6 hPa | 0 mm | - | 23 W/m² | - |
| 1787827173 | 17.78° C | 99% | 1015.4 hPa | 0 mm | - | 26 W/m² | - |
| 1787826873 | 17.78° C | 99% | 1015.3 hPa | 0 mm | - | 22 W/m² | - |
| 1787826563 | 17.78° C | 99% | 1015.3 hPa | 0 mm | - | 12 W/m² | - |
| 1787826259 | 17.78° C | 99% | 1015.3 hPa | 0 mm | - | 6 W/m² | - |
| 1787825954 | 17.78° C | 99% | 1015.5 hPa | 0 mm | - | 6 W/m² | - |
| 1787825648 | 17.22° C | 99% | 1015.4 hPa | 0 mm | - | 4 W/m² | - |
* Rain latest hour (hover to see other rain measurements)
** Current wind speed in m/s (hover to see current wind gust speed)